Location: Austin
(30.3000°N, 97.7500°W)
Time: 11:34:49
(UTC-05:00)

USA 308 - Pass Details

Date: 26 May 2023
Orbit: 493 x 493 km, 54.0° (Epoch: 14 March)

Event Time Altitude Azimuth Distance (km) Brightness Sun altitude
Rises 20:48:40 0° 325° (NW) 2,531 7.5 -5.4°
Reaches altitude 10° 20:50:53 10° 332° (NNW) 1,662 6.3 -5.8°
Maximum altitude 20:54:30 45° 46° (NE) 677 3.2 -6.5°
Drops below altitude 10° 20:58:09 10° 120° (ESE) 1,676 4.6 -7.2°
Enters shadow 20:58:19 - 121° (ESE) 1,740 4.7 -7.2°
